This demonstration page uses our WeatherBlox Daily Observations layout. Learn more.

Left ArrowRight Arrow

41.55636, -103.73856

Hourly Observations for May 10, 2020

Temp ( °F °C ) Dew Point ( °F °C ) Humidity (%) Winds ( mph kmh ) Pressure ( in mb ) Visibility ( mi km ) Precip ( " mm )
12:58 am 00:58 Clear 50 10.2 16 -8.7 26 26 N 22 35 30.28 1025 10 16 N/A
1:58 am 01:58 Clear 45 7 20 -6.9 37 37 NE 12 19 30.31 1026 10 16 N/A
2:58 am 02:58 Mostly Clear 40 4.2 22 -5.6 49 49 ENE 9 15 30.37 1028 10 16 N/A
3:58 am 03:58 Cloudy 40 4.7 26 -3.5 56 56 ENE 13 20 30.37 1029 10 16 N/A
4:58 am 04:58 Cloudy 39 4 26 -3.1 60 60 SE 9 15 30.41 1030 10 16 N/A
5:58 am 05:58 Cloudy 38 3.6 26 -3.2 61 61 SSE 6 9 30.41 1030 10 16 N/A
6:58 am 06:58 Cloudy 39 3.8 26 -3.3 60 60 S 6 9 30.40 1029 10 16 N/A
7:58 am 07:58 Cloudy with Light Rain 38 3.4 31 -0.7 75 75 SSW 14 22 30.37 1029 10 16 N/A
8:58 am 08:58 Cloudy 37 2.7 32 -0.1 82 82 SW 12 19 30.36 1028 10 16 N/A
9:58 am 09:58 Cloudy 38 3.3 31 -0.4 77 77 SW 3 6 30.35 1028 10 16 N/A
10:58 am 10:58 Mostly Cloudy 39 3.8 30 -1.1 71 71 SSW 9 15 30.33 1027 10 16 N/A
11:58 am 11:58 Mostly Cloudy 37 3 29 -1.7 72 72 SW 15 24 30.34 1028 10 16 N/A
12:58 pm 12:58 Mostly Cloudy 38 3.6 28 -2.1 67 67 SSW 16 26 30.34 1028 10 16 N/A
1:58 pm 13:58 Mostly Cloudy 42 5.3 29 -1.8 61 61 SSW 13 20 30.36 1028 10 16 N/A
2:58 pm 14:58 Sunny 47 8.1 27 -2.9 46 46 SW 8 13 30.36 1028 10 16 N/A
3:58 pm 15:58 Mostly Sunny 49 9.3 26 -3.6 40 40 SW 8 13 30.35 1028 10 16 N/A
4:58 pm 16:58 Mostly Sunny 50 10.2 26 -3.1 39 39 SSW 3 6 30.34 1028 10 16 N/A
5:58 pm 17:58 Partly Cloudy 54 12.3 25 -4.1 32 32 N N/A 30.31 1026 10 16 N/A
6:58 pm 18:58 Mostly Cloudy 55 12.7 24 -4.4 30 30 NNW 6 9 30.30 1026 10 16 N/A
7:58 pm 19:58 Mostly Cloudy 56 13.5 28 -2.5 33 33 NE 8 13 30.26 1025 10 16 N/A
8:58 pm 20:58 Mostly Cloudy 55 12.8 26 -3.3 33 33 ENE 12 19 30.27 1025 10 16 N/A
9:58 pm 21:58 Mostly Cloudy 54 12.2 27 -2.9 35 35 E 17 28 30.26 1025 10 16 N/A
10:58 pm 22:58 Partly Cloudy 55 12.7 27 -2.9 34 34 ENE 14 22 30.26 1025 10 16 N/A
11:58 pm 23:58 Partly Cloudy 51 10.6 28 -2.3 41 41 ENE 16 26 30.28 1025 10 16 N/A

Powered by AerisWeather